Location: ???? ????
(41.4149°N, 22.8816°E)
Time: 12:07:19
(UTC+00:00)

Aureole 2 - Pass Details

Date: 14 July 2020
Orbit: 366 x 900 km, 73.9° (Epoch: 10 August)

Event Time Altitude Azimuth Distance (km) Brightness Sun altitude
Exits shadow 01:46:36 25° 229° (SW) 799 5.0 -12.8°
Maximum altitude 01:47:59 48° 291° (WNW) 497 4.4 -12.7°
Drops below altitude 10° 01:50:51 10° 8° (N) 1,368 7.7 -12.3°
Sets 01:52:53 0° 15° (NNE) 2,233 9.0 -12.0°
